Weather History for Wooster, OH

Change the Weather History Date:

Saturday, August 31, 2013

  Actual Average Record
Temperature  
Mean Temperature 74 °F -  
Max Temperature 82 °F 76 °F 91 °F (2012)
Min Temperature 66 °F 53 °F 46 °F (1999)
Cooling Degree Days 9    
Growing Degree Days 24 (Base 50)    
Moisture  
Dew Point 68 °F    
Average Humidity 81    
Maximum Humidity 93    
Minimum Humidity 65    
Precipitation  
Precipitation 0.11 in - - ()
Sea Level Pressure  
Sea Level Pressure 29.83 in    
Wind  
Wind Speed 6 mph (West)    
Max Wind Speed 13 mph    
Max Gust Speed 17 mph    
Visibility 7 miles    
Events Rain , Thunderstorm    
Averages and records for this station are not official NWS values.
T = Trace of Precipitation, MM = Missing Value Source: NWS Daily Summary

Daily Weather History Graph

Daily Weather History Graph

Search for Another Location

Airport:

Trip Planner

Search our weather history database for the weather conditions in past years. The results will help you decide how hot, cold, wet, or windy it might be!

Date:

Astronomy

Aug. 31, 2013 Rise Set
Actual Time 6:53 AM EDT 8:01 PM EDT
Civil Twilight 6:25 AM EDT 8:29 PM EDT
Nautical Twilight 5:51 AM EDT 9:02 PM EDT
Astronomical Twilight 5:16 AM EDT 9:38 PM EDT
Moon 2:20 AM EDT (8/31) 4:59 PM EDT (8/31)
Length of Visible Light 14h 03m
Length of Day
13h 07m
Waning Crescent, 21% of the Moon is Illuminated
Aug 31
Waning Crescent
Sep 5
New
Sep 12
First Quarter
Sep 19
Full
Sep 26
Last Quarter

Hourly Weather History & Observations

Time (EDT) Temp. Heat Index Dew Point Humidity Pressure Visibility Wind Dir Wind Speed Gust Speed Precip Events Conditions
12:56 AM 72.0 °F - 66.9 °F 84% 29.81 in 6.0 mi SSW 4.6 mph - N/A   Haze
1:56 AM 71.1 °F - 66.9 °F 87% 29.82 in 6.0 mi SW 6.9 mph - N/A   Clear
2:56 AM 71.1 °F - 66.0 °F 84% 29.81 in 6.0 mi SW 6.9 mph - N/A   Haze
3:56 AM 70.0 °F - 66.0 °F 87% 29.83 in 6.0 mi WNW 6.9 mph - 0.00 in Rain Light Rain
4:12 AM 69.8 °F - 66.2 °F 88% 29.86 in 5.0 mi SW 4.6 mph - 0.00 in Rain , Thunderstorm Light Thunderstorms and Rain
4:37 AM 69.8 °F - 66.2 °F 88% 29.84 in 2.5 mi SSW 4.6 mph - 0.05 in Rain , Thunderstorm Thunderstorms and Rain
4:43 AM 69.8 °F - 66.2 °F 88% 29.83 in 3.0 mi Calm Calm - 0.06 in Rain Light Rain
4:56 AM 70.0 °F - 66.9 °F 90% 29.78 in 4.0 mi SW 8.1 mph - 0.08 in Rain Rain
5:56 AM 71.1 °F - 66.0 °F 84% 29.78 in 8.0 mi West 5.8 mph - 0.03 in   Partly Cloudy
6:56 AM 66.0 °F - 64.0 °F 93% 29.83 in 7.0 mi Calm Calm - N/A   Clear
7:56 AM 69.1 °F - 66.9 °F 93% 29.84 in 4.0 mi SSW 4.6 mph - N/A   Clear
8:56 AM 73.0 °F - 69.1 °F 87% 29.86 in 5.0 mi West 3.5 mph - N/A   Mostly Cloudy
9:56 AM 73.9 °F - 68.0 °F 82% 29.86 in 9.0 mi WSW 6.9 mph - N/A   Mostly Cloudy
10:56 AM 77.0 °F - 69.1 °F 76% 29.86 in 10.0 mi West 8.1 mph - N/A   Clear
11:56 AM 79.0 °F - 70.0 °F 74% 29.84 in 10.0 mi SW 9.2 mph - N/A   Mostly Cloudy
12:47 PM 80.6 °F 83.9 °F 69.8 °F 70% 29.86 in 10.0 mi WSW 6.9 mph - N/A   Scattered Clouds
12:56 PM 80.1 °F 83.2 °F 70.0 °F 71% 29.83 in 10.0 mi West 8.1 mph - N/A   Partly Cloudy
1:28 PM 80.6 °F 84.6 °F 71.6 °F 74% 29.85 in 10.0 mi WSW 6.9 mph - N/A   Mostly Cloudy
1:37 PM 80.6 °F 83.9 °F 69.8 °F 70% 29.85 in 10.0 mi West 9.2 mph - N/A   Mostly Cloudy
1:56 PM 80.1 °F 83.2 °F 70.0 °F 71% 29.83 in 9.0 mi WSW 6.9 mph - N/A   Overcast
2:44 PM 80.6 °F 84.6 °F 71.6 °F 74% 29.85 in 9.0 mi West 12.7 mph 17.3 mph N/A   Mostly Cloudy
2:56 PM 80.1 °F 83.6 °F 71.1 °F 74% 29.83 in 9.0 mi West 10.4 mph - N/A   Mostly Cloudy
3:56 PM 81.0 °F 84.4 °F 70.0 °F 69% 29.82 in 10.0 mi WNW 5.8 mph - N/A   Partly Cloudy
4:56 PM 81.0 °F 84.4 °F 70.0 °F 69% 29.81 in 10.0 mi NW 10.4 mph - N/A   Scattered Clouds
5:56 PM 82.0 °F 85.5 °F 69.1 °F 65% 29.79 in 10.0 mi North 9.2 mph - N/A   Scattered Clouds
6:56 PM 78.1 °F - 69.1 °F 74% 29.81 in 9.0 mi NNW 5.8 mph - N/A   Clear
7:56 PM 75.0 °F - 68.0 °F 79% 29.83 in 6.0 mi NNE 4.6 mph - N/A   Haze
8:56 PM 73.0 °F - 66.9 °F 81% 29.84 in 7.0 mi NNE 3.5 mph - N/A   Partly Cloudy
9:56 PM 70.0 °F - 66.9 °F 90% 29.83 in 6.0 mi NNE 3.5 mph - N/A   Scattered Clouds
10:56 PM 70.0 °F - 66.9 °F 90% 29.83 in 5.0 mi Calm Calm - N/A   Mostly Cloudy
11:56 PM 70.0 °F - 68.0 °F 93% 29.83 in 4.0 mi Calm Calm - N/A   Scattered Clouds